Terug naar catalogus

COSMOS 2251 DEB

ActiefLEO
NORAD 34680·DEBRIS·🇷🇺 Russia

Gelanceerd Jun 16, 1993 vanaf Plesetsk Cosmodrome

Loading…

Volgende Passages (komende 24 uur)

TLE

VersSource: Space-Track

Epoch: Sep 14, 2026, 10:35 UTC

1 34680U 93036YA  26257.44154722  .00002261  00000-0  44754-3 0  9991
2 34680  74.0439 322.3302 0008052 329.0181  44.0111 14.62904994923579

Volg COSMOS 2251 DEB in realtime met AllMySat

Download on the App Store